Location: Unspecified
(0.0000°N, 0.0000°E)
Time: 03:49:41
(UTC+00:00)

deb Blok Kosmos - Visible Passes

Search period start: 20 May 2026 00:00
Search period end: 30 May 2026 00:00
Orbit: 1342 x 1715 km, 56.1° (Epoch: 19 May)

Date Brightness Start Highest point End Pass type
(mag) Time Alt. Az. Time Alt. Az. Time Alt. Az.
20 May ? 04:38:07 10° NNW 04:47:32 56° ENE 04:56:13 10° SE visible
20 May ? 19:25:50 10° WNW 19:27:52 11° NW 19:29:57 10° NW visible
21 May ? 03:56:33 10° N 04:05:15 37° ENE 04:13:21 10° ESE visible
21 May ? 18:39:23 10° W 18:45:20 19° NW 18:51:34 10° NNW visible
22 May ? 03:15:32 10° N 03:22:53 24° ENE 03:29:50 10° ESE visible
22 May ? 05:15:23 10° NW 05:24:45 59° WSW 05:33:26 10° SSE visible
23 May ? 02:35:33 10° NNE 02:40:24 15° NE 02:45:06 10° E visible
23 May ? 04:32:53 10° NNW 04:42:37 87° WSW 04:51:33 10° SSE visible
24 May ? 03:50:46 10° NNW 04:00:25 65° ENE 04:09:18 10° SE visible
25 May ? 03:09:02 10° N 03:18:09 43° ENE 03:26:36 10° SE visible
25 May ? 05:11:33 10° WNW 05:19:46 33° WSW 05:27:29 10° S visible
26 May ? 02:27:47 10° N 02:35:49 28° ENE 02:43:21 10° ESE visible
26 May ? 04:28:23 10° NW 04:37:36 51° WSW 04:46:11 10° SSE visible
27 May ? 01:47:18 10° NNE 01:53:23 18° NE 01:59:11 10° E visible
27 May ? 03:45:43 10° NW 03:55:27 76° WSW 04:04:26 10° SSE visible
28 May ? 01:10:17 10° NE 01:10:48 10° NE 01:11:19 10° ENE visible
28 May ? 03:03:28 10° NNW 03:13:16 74° ENE 03:22:19 10° SE visible
28 May ? 05:09:14 10° W 05:14:52 17° WSW 05:20:19 10° SSW visible
29 May ? 02:21:36 10° NNW 02:35:01 33° ESE 02:39:47 10° SE visible
29 May ? 04:32:07 28° WSW 04:32:37 28° WSW 04:40:00 10° S visible
